Weather in Bogorodskoye

Russia / Samara Oblast     53°38′00″N   51°09′56″E
temp.,
°C
wind,
m/s
gust,
m/s
humid.,
%
clouds,
%
prec.,
mm/h
press.,
hPa
HPBL,
m
4 august, wed
wed401:00+23nnw384899 0.0 1011148
04:00+22se2255100 0.0 101112
07:00+25sse1249100 0.0 101166
10:00+28nne1140100 0.0 1011490
13:00+32wnw2230100 0.0 10101043
16:00+34wnw452676 0.0 10091300
19:00+30nnw693999 0.0 1009519
22:00+23nnw61268100 0.1 1011377
5 august, thu
thu501:00+19nnw398998 0.3 1012284
04:00+17nnw389458 0.4 1012219
07:00+18n378392 0.2 1013316
10:00+23n685397 0.2 1013824
13:00+27n6735100 0.0 10131858
16:00+28n663299 0.0 10122747
19:00+24nnw593395 0.0 1014724
22:00+20nnw613535 0.0 1015368
6 august, fri
fri601:00+15nw227220 0.0 101531
04:00+14nnw2281100 0.0 101625
07:00+17n35662 0.0 1017183
10:00+24n444313 0.0 10171406
13:00+26nnw333127 0.0 10162287
16:00+28nnw442629 0.0 10152368
19:00+25n3531100 0.0 1016170
22:00+19n224121 0.0 101713
7 august, sat
sat701:00+16ne224946 0.0 101715
04:00+15e225718 0.0 101811
07:00+19ese23495 0.0 1018143
10:00+25se32325 0.0 10181003
13:00+30sse11255 0.0 10171669
16:00+31n112440 0.0 10172128
19:00+28n113299 0.0 101712
22:00+23ese2241100 0.0 101718
8 august, sun
sun801:00+20se2245100 0.0 101724
04:00+19se22489 0.0 101811
07:00+22se234211 0.0 1018123
10:00+28s332882 0.0 1018678
13:00+32sse23226 0.0 10172273
16:00+34sse2220100 0.0 10162877
19:00+30ese2226100 0.0 101532
22:00+26e2232100 0.0 101511